Résultats 2013

vendredi 29 mars 2013
popularité : 100%

BRAVO et merci à tous les joggeurs. Bloquez déjà votre agenda pour les 22ème sommets le dimanche 9 MARS 2014.

D’ici là l’école vous souhaite le meilleur.

Gardez la forme et revenez à notre jogging de Theux.

Résultats course A

Résultats course B

Résultats course C

Le lien vers le site Challenge Jogging de la Province de Liège

Course A

Position Dossard Nom Prénom Temps Garçons Filles Points Club Moyenne par km Vitesse moyenne(km/h)
1 388 JENNEN THOMAS 00:06:31 1 1000 . 00:03:37 16.57
2 52 DAMAN ARTHUR 00:06:35 2 989 VORTAL 00:03:39 16.41
3 920 LAMOTTE TOM 00:07:11 3 977 DOSSARD 110 00:03:59 15.03
4 872 CARABIN SACHA 00:07:20 4 966 . 00:04:04 14.73
5 979 MARTINEZ LISA 00:07:22 1 954 HF 00:04:05 14.66
6 902 DOYEN LOAN 00:07:29 5 943 ELT 00:04:09 14.43
7 924 TIQUET VICTOR 00:07:29 6 931 ELT 00:04:09 14.43
8 995 KLINGER SIMON 00:07:32 7 920 . 00:04:11 14.34
9 425 VISCONTI ALICIA 00:07:32 2 908 HERVE 00:04:11 14.34
10 871 CASTAGNE THOMAS 00:07:37 8 897 . 00:04:13 14.18
11 926 HALKIN GILLES 00:07:39 9 885 SPA 00:04:15 14.12
12 413 SIEMES QUENTIN 00:07:44 10 874 HF 00:04:17 13.97
13 909 LEJEUNE SHANIA 00:07:49 3 862 HF 00:04:20 13.82
14 982 DIEFELS GUILLAUME 00:08:00 11 851 ELT 00:04:26 13.50
15 971 DUYCKAERTS ROBIN 00:08:06 12 839 ELT 00:04:30 13.33
16 992 MONMART LOIC EMANUEL 00:08:17 13 828 . 00:04:36 13.04
17 991 MELORO ARJONA HUGO 00:08:18 14 816 ELT 00:04:36 13.01
18 903 HAVARD NOAH 00:08:19 15 805 ELT 00:04:37 12.99
19 915 LORQUET NOE 00:08:24 16 793 LES ZAFTERS 00:04:40 12.86
20 917 FISCHER JUSTIN 00:08:27 17 782 LAMI CAUSE 00:04:41 12.78
21 927 CORNE AURELIEN 00:08:27 0 ELT 00:04:41 12.78
22 885 DOUTRELEPONT MOE 00:08:29 18 770 . 00:04:42 12.73
23 905 HALLEUX TIME 00:08:29 19 759 ELT 00:04:42 12.73
24 964 HOUBEAU MATHEO 00:08:30 20 747 . 00:04:43 12.71
25 874 MACQUET JUSTIN 00:08:30 21 736 . 00:04:43 12.71
26 997 DIEPART JULIEN 00:08:31 22 724 . 00:04:43 12.68
27 876 GRIGNARD THIBAULT 00:08:31 23 713 . 00:04:43 12.68
28 977 CERIANI ALIAUNE 00:08:31 24 701 ELT 00:04:43 12.68
29 875 DENOOZ LUCAS 00:08:37 25 690 . 00:04:47 12.53
30 919 THEEK MATHIEU 00:08:40 26 678 ELT 00:04:48 12.46
31 879 BASTIN LOUIS 00:08:44 27 667 . 00:04:51 12.37
32 970 DUYCKAERTS EMILIE 00:08:47 4 655 ELT 00:04:52 12.30
33 893 MOREAU ALICE 00:08:48 5 644 ELT 00:04:53 12.27
34 878 BASTIN FRANCOIS 00:08:48 28 632 . 00:04:53 12.27
35 888 DIEFELS HUGO 00:08:53 29 621 . 00:04:56 12.16
36 914 CORNE LOUISE 00:08:53 6 609 ELT 00:04:56 12.16
37 913 BEAUVE ANAIS 00:08:53 7 598 ELT 00:04:56 12.16
38 912 MARTILAUX JONAS 00:08:54 30 586 ELT 00:04:56 12.13
39 896 BECHOUX SAM 00:08:54 31 575 ELT 00:04:56 12.13
40 996 BRACH SALOME 00:08:55 8 563 . 00:04:57 12.11
41 886 ANDRIEN SACHA 00:08:57 32 552 . 00:04:58 12.07
42 895 VAN LAETHEM EMMA 00:09:04 9 540 ELT 00:05:02 11.91
43 922 MOREAU CHARLIE 00:09:06 33 529 ELT 00:05:03 11.87
44 897 DOSSOGNE CYRIL 00:09:07 34 517 ELT 00:05:03 11.85
45 980 COUNOTTE TOM 00:09:10 35 506 ELT 00:05:05 11.78
46 921 FREDERICK NATHAN 00:09:10 36 494 . 00:05:05 11.78
47 967 LEGROS REMI 00:09:16 37 483 ELT 00:05:08 11.65
48 87 FOGUENNE M FRANCE 00:09:16 10 471 HF 00:05:08 11.65
49 887 COLETTE JUNIOR 00:09:22 38 460 . 00:05:12 11.53
50 51 DAMAN PIERROT 00:09:24 39 448 VORTAL 00:05:13 11.49
51 881 RENSON LOIC 00:09:26 40 437 . 00:05:14 11.45
52 965 PIROTTE ANAE 00:09:26 11 425 ELT 00:05:14 11.45
53 969 DUYCKAERTS ARTHUR 00:09:30 41 414 ELT 00:05:16 11.37
54 999 MOREAU JULIETTE 00:09:34 12 402 . 00:05:18 11.29
55 968 FAYE MATHEO 00:09:40 42 391 ELT 00:05:22 11.17
56 906 HALLEUX THEA 00:09:40 13 379 ELT 00:05:22 11.17
57 925 MARISSEAUX GASPARD 00:09:44 43 368 ELT 00:05:24 11.10
58 928 ZULIANI MATTEO 00:09:47 44 356 ELT 00:05:26 11.04
59 962 RATHIER MANON 00:09:48 14 345 ELT 00:05:26 11.02
60 998 MOREAU CLEMENTINE 00:09:48 15 333 . 00:05:26 11.02
61 976 LAURENT ESTELLE 00:09:51 16 322 ELT 00:05:28 10.96
62 883 POTTIER AMELIE 00:09:51 17 310 . 00:05:28 10.96
63 892 MAGERMANS AUDE 00:09:54 18 299 . 00:05:30 10.91
64 890 GODEZ EMILIE 00:09:56 19 287 . 00:05:31 10.87
65 900 DOYEN NOE 00:09:57 45 276 ELT 00:05:31 10.85
66 930 GRILLI MANON 00:09:58 20 264 ELT 00:05:32 10.84
67 910 RODRIGUEZ ROBIN 00:10:04 46 253 ELT 00:05:35 10.73
68 898 COMPERE ZOE 00:10:04 21 241 ELT 00:05:35 10.73
69 904 LONNEUX LEA 00:10:05 22 230 . 00:05:36 10.71
70 994 KLINGER ROMAIN 00:10:22 47 218 . 00:05:45 10.42
71 929 GRILLI MARTIN 00:10:26 48 207 ELT 00:05:47 10.35
72 877 DELIERNEUX CLARA 00:10:26 23 195 . 00:05:47 10.35
73 891 DOSSARD NON_INSCRIT 00:10:29 0 . 00:05:49 10.30
74 1000 STOQUART REMI 00:10:29 49 184 . 00:05:49 10.30
75 894 MOREAU SOPHIE 00:10:30 24 172 ELT 00:05:50 10.29
76 916 HINK ELINE 00:10:37 25 161 ELT 00:05:53 10.17
77 972 LAURENT CLARISSE 00:10:40 26 149 . 00:05:55 10.12
78 978 CERIANI TITOUAN 00:10:41 50 138 ELT 00:05:56 10.11
79 882 POTTIER THOMAS 00:10:45 51 126 . 00:05:58 10.05
80 911 LANGE NATURELLE 00:10:50 27 115 ELT 00:06:01 9.97
81 963 RAHIER LUCAS 00:10:50 52 103 ELT 00:06:01 9.97
82 880 RENSON AUDE 00:10:52 28 92 . 00:06:02 9.94
83 923 CAUCIG LOUISON 00:10:53 29 80 ELT 00:06:02 9.92
84 889 PIRNAY LILYROSE 00:10:57 30 69 . 00:06:05 9.86
85 961 ROSEN ADELE 00:11:06 31 57 . 00:06:10 9.73
86 908 LODEZ LOUISE 00:11:07 32 46 ELT 00:06:10 9.72
87 907 SANCHEZ REDONDO LEA 00:11:17 33 34 RCA SPA 00:06:16 9.57
88 981 DEWALQUE ZOE 00:12:48 34 23 . 00:07:06 8.44
89 899 GRAFF PAULINE 00:13:34 35 11 ELT 00:07:32 7.96

Course B

Position Dossard Nom Prénom Temps Garçons Filles Déb.H Déb.F Points Club Moyenne par km Vitesse moyenne(km/h)
1 1 FOGUENNE TIZIANO 00:21:29 1 1000 HF 00:03:42 16.20
2 941 JEROME AURELIEN 00:22:38 2 983 HERVE 00:03:54 15.38
3 949 LEMMENS ROMAIN 00:22:49 1 FAC 00:03:56 15.25
4 957 HERBET VALENTIN 00:23:05 3 967 HF 00:03:58 15.08
5 368 DE HEY BENJAMIN 00:23:09 4 950 HF 00:03:59 15.03
6 79 FOGUENNE JACOB 00:23:16 5 933 HF 00:04:00 14.96
7 940 OTTEN DENIS 00:23:18 6 917 AC VISE 00:04:01 14.94
8 950 JOCKIN FRANCOIS 00:23:20 2 RFCL 00:04:01 14.91
9 58 DAMAN MANU 00:23:45 7 900 VORTAL 00:04:05 14.65
10 451 MAKA TANGUY 00:24:03 8 883 FAC 00:04:08 14.47
11 1717 HAVARD THOMAS 00:24:09 9 867 RCA SPA 00:04:09 14.41
12 1725 DE FROIDMONT GUILLAUME 00:24:26 10 850 SPA 00:04:12 14.24
13 1730 ELSEN MATHIEU 00:24:45 11 833 HF 00:04:16 14.06
14 956 EMONTS PIERRE 00:24:52 12 817 ELT 00:04:17 13.99
15 1797 EL BALDI DRISS 00:25:12 13 800 HF 00:04:20 13.81
16 2 DEMONTY NICOLAS 00:25:22 14 783 HERVE 00:04:22 13.72
17 947 DRESSE ALEXANDRE 00:25:34 15 767 HF 00:04:24 13.61
18 946 SCHILLINGS FRANCOIS 00:26:00 16 750 ELT 00:04:28 13.38
19 472 CLAES MATHILDE 00:26:11 1 733 AC VISE 00:04:30 13.29
20 944 VINDEVOGEL TILL 00:26:27 17 717 . 00:04:33 13.16
21 498 LOUIS FRAN ?OIS 00:26:45 18 700 CSM 00:04:36 13.01
22 500 MOORS MATHIAS 00:26:55 19 683 HERVE 00:04:38 12.93
23 943 GANTUIS CLEMENT 00:27:02 20 667 CAB 00:04:39 12.87
24 932 LEGROS VALENTIN 00:27:20 21 650 . 00:04:42 12.73
25 410 SPELGATTI ANDREA 00:27:36 22 633 . 00:04:45 12.61
26 958 LEJEUNE MAXIME 00:27:44 3 . 00:04:46 12.55
27 389 JENNEN VICTORIA 00:27:47 2 617 . 00:04:47 12.53
28 1793 SCHWAIGER NOE 00:27:50 23 600 . 00:04:47 12.50
29 1723 FISCHER HUGO 00:27:53 24 583 L AMICAUSE 00:04:48 12.48
30 1739 FISCHER RENAUD 00:27:55 4 L AMICAUSE 00:04:48 12.47
31 1724 FISCHER RENAUD 00:27:55 5 L AMICAUSE 00:04:48 12.47
32 942 JOURDAN THIBAUD 00:28:28 25 567 TCBM 00:04:54 12.22
33 955 BASSLEER NATHAN 00:28:41 . 00:04:56 12.13
34 951 BAUDINET CAROLINE 00:28:59 3 550 RFCL 00:04:59 12.01
35 1712 DEMBLON SARAH 00:29:40 4 533 . 00:05:06 11.73
36 936 FLAMAXHE MARINE 00:30:04 5 517 SERAING ATHLE 00:05:11 11.57
37 1726 HALKIN LUCIEN 00:30:09 26 500 RCA SPA 00:05:11 11.54
38 1713 MOREAU HUGUES 00:30:12 27 483 . 00:05:12 11.52
39 50 DAMAN JEANNE 00:30:47 6 467 VORTAL 00:05:18 11.30
40 55 DAMAN HELENE 00:30:48 7 450 VORTAL 00:05:18 11.30
41 933 EMONTS MARGAUX 00:30:54 8 433 ELT 00:05:19 11.26
42 1813 GILARD M FRANCE 00:30:54 1 . 00:05:19 11.26
43 1715 COMPERE HUGO 00:31:09 28 417 RCA SPA 00:05:22 11.17
44 1721 ZULIANI HUGO 00:31:14 29 400 ELT 00:05:23 11.14
45 952 REDING GERMAIN 00:31:22 30 383 RCA SPA 00:05:24 11.09
46 1716 HAVARD MARIE 00:31:24 9 367 ELT 00:05:24 11.08
47 945 NOEL INES 00:31:55 10 350 . 00:05:30 10.90
48 1719 LEJEUNE LINDSAN 00:32:20 11 333 HF 00:05:34 10.76
49 1706 KEUTGEN ELODIE 00:33:05 12 317 ELT 00:05:42 10.52
50 1707 MARTIN JEAN 00:33:27 6 . 00:05:46 10.40
51 1708 BOELEN QUENTIN 00:33:47 31 300 . 00:05:49 10.30
52 959 MAQUET FLORIAN 00:33:47 32 283 . 00:05:49 10.30
53 1711 DEMBLON MARINE 00:34:59 13 267 . 00:06:01 9.95
54 63 DAMAN PASCALE 00:34:59 2 VORTAL 00:06:01 9.95
55 953 SOUGNE ELODIE 00:35:00 3 . 00:06:02 9.94
56 948 BERGHMANS SARAH 00:35:06 14 250 ELT 00:06:03 9.91
57 937 STOQUART DORINE 00:35:08 15 233 ELT 00:06:03 9.91
58 1798 COMTE CHRISTINE 00:35:16 4 JCPMF DONCEEL 00:06:04 9.87
59 960 THONART LISY 00:35:32 16 217 . 00:06:07 9.79
60 1795 SCHWAIGER LUCIE 00:35:34 17 200 L AMICAUSE 00:06:07 9.78
61 1792 POLET MELANIE 00:35:35 18 183 . 00:06:08 9.78
62 1791 THONART MARC 00:35:35 7 . 00:06:08 9.78
63 1704 DENOOZ MARINE 00:35:37 19 167 . 00:06:08 9.77
64 1796 SCHWAIGER YVES 00:35:37 8 L AMICAUSE 00:06:08 9.77
65 931 ROSEN JULIEN 00:35:56 33 150 . 00:06:11 9.68
66 1718 BERTONI ALEXANDRA 00:36:04 5 . 00:06:13 9.65
67 1702 SPITS ALINE 00:36:18 20 133 . 00:06:15 9.59
68 1701 XHROUET LEA 00:36:23 21 117 . 00:06:16 9.56
69 1720 HERTAY LUCIE 00:36:27 22 100 ELT 00:06:17 9.55
70 105 VANDEN BORRE ORLANE 00:36:28 6 KINEO 00:06:17 9.54
71 935 BEAUVE CHARLOTTE 00:36:43 23 83 ELT 00:06:19 9.48
72 1714 MAGIELS BEATRICE 00:37:13 7 SERUNNERS 00:06:25 9.35
73 1705 MARQUET COLINE 00:37:34 24 67 ELT 00:06:28 9.26
74 1703 SPITS STEVEN 00:38:10 34 50 ELT 00:06:34 9.12
75 1709 BOELEN ARNAUD 00:38:13 9 . 00:06:35 9.11
76 1710 BOELEN MARTIN 00:38:14 35 33 . 00:06:35 9.10
77 104 MUTSERS SYLVIE 00:38:20 8 KINEO 00:06:36 9.08
78 954 LEON VICTOR 00:38:28 10 SERUNNERS SERAING 00:06:37 9.05
79 1727 GILARD SERENA 00:44:12 25 17 ELT 00:07:37 7.87
80 1728 GILARD SYLVIE 00:44:12 9 . 00:07:37 7.87

Course C

Position Dossard Nom Prénom Temps Esp.H Séniors Vétér.I Vétér.II Vétér.III Esp.D Dames Ainées I Ainées II Points Club Moyenne par km Vitesse moyenne(km/h)
1 1950 DUVIVIER ANTOINE 00:33:55 1 1000 . 00:03:08 19.11
2 1017 LEFEBVRE LUDWIG 00:36:07 2 998 . 00:03:20 17.94
3 1760 DEVEL PHILIPPE 00:36:28 3 996 NB JOGGING PLUS 00:03:22 17.77
4 1732 LAMBOTTE BENOIT 00:37:09 4 994 ATH ESNEUX 00:03:26 17.44
5 138 VANASCHEN CEDRIC 00:37:42 5 992 LAC EUPEN 00:03:29 17.19
6 2097 CHARLIER J FRANCOIS 00:37:56 6 990 SALOMON JOG 00:03:30 17.08
7 1852 LANGER STEPHAN 00:38:04 7 988 BUTGENBACH 00:03:31 17.02
8 1944 TERRITO JOAKIM 00:38:08 8 986 . 00:03:31 16.99
9 470 TILKIN JULIEN 00:39:14 9 984 . 00:03:37 16.52
10 1014 WERY GILLES 00:39:34 10 982 FAC 00:03:39 16.38
11 27 VENTURELLI DOMINIQUE 00:39:48 1 980 . 00:03:41 16.28
12 1896 FISCHER TOM 00:39:52 11 978 TEAM CBM 00:03:41 16.25
13 1020 BUCHE J PASCAL 00:39:53 2 976 . 00:03:41 16.25
14 1734 MOREAU BERNARD 00:39:52 3 974 BOTTHEUX 00:03:41 16.25
15 1898 RENSONNET DENIS 00:40:21 12 972 . 00:03:44 16.06
16 1876 MACHIELS OLIVIER 00:40:27 13 970 LAFUMA TEAM 00:03:44 16.02
17 1820 FUDVOYE THOBAUT 00:40:35 14 969 . 00:03:45 15.97
18 1952 RYSENAER MARC 00:40:37 15 967 . 00:03:45 15.95
19 1826 BORN ADRIEN 00:40:38 1 965 RCA SPA 00:03:45 15.95
20 93 DOUPAGNE CLAUDE 00:40:51 1 963 SER ATHLE 00:03:46 15.86
21 1746 DEWEZ ERWAN 00:41:18 2 961 RCM SPA 00:03:49 15.69
22 1832 MICHEL REGIS 00:41:18 16 959 . 00:03:49 15.69
23 1970 NIZET KEVIN 00:41:19 17 957 . 00:03:49 15.68
24 2156 FRANSSEN DAVID 00:41:34 18 955 . 00:03:50 15.59
25 420 WOOLF ALAIN 00:41:38 2 953 FC HANNUT 00:03:51 15.56
26 494 GRAINDORGE ERIC 00:41:46 3 951 TDCH 00:03:52 15.51
27 2157 MOGHOGHI YASSINE 00:41:38 19 949 . 00:03:51 15.56
28 2086 TIMMERMANN ALEXANDRE 00:41:59 20 947 . 00:03:53 15.43
29 1945 TERRITO DIDIER 00:42:00 4 945 . 00:03:53 15.43
30 121 VENTURELLI MAXIME 00:42:04 21 943 . 00:03:53 15.40
31 1911 CANISIUS P OLIVIER 00:42:15 4 941 . 00:03:54 15.34
32 2188 BRAGARD J FRANCOIS 00:42:20 22 939 HERVE AC 00:03:55 15.31
33 2214 FAT LUNA 00:42:24 23 937 FAT TEAM 00:03:55 15.28
34 1877 LAMOUREUX LAURENT 00:42:27 5 935 LAVENIR 00:03:55 15.27
35 429 SACCO DORIAN 00:42:37 24 933 . 00:03:56 15.21
36 2217 JAMAR CEDRIC 00:43:00 25 931 . 00:03:58 15.07
37 1009 VANDEPUTTE PASCAL 00:43:01 6 929 . 00:03:58 15.06
38 1979 LUXEN BENOIT 00:43:06 5 927 RCA SPA 00:03:59 15.03
39 1924 HENDRICK JULIEN 00:43:10 26 925 . 00:03:59 15.01
40 2127 BOEVINGER LAURENT 00:43:10 27 923 . 00:03:59 15.01
41 1806 RENSONNET DIDIER 00:43:18 28 921 L AMICAUSE 00:04:00 14.97
42 2124 DELREZ AMAURY 00:43:20 29 919 . 00:04:00 14.95
43 1025 SCHWAIGER YVES 00:43:35 7 917 L AMICAUSE 00:04:02 14.87
44 1041 DOSSIN GUILLAUME 00:43:42 3 915 TTF 00:04:02 14.83
45 477 CULOT GREGORY 00:43:45 30 913 HERVE AC 00:04:03 14.81
46 1752 BESONHE SIMON 00:43:46 31 911 . 00:04:03 14.81
47 1906 DEBROUX SEBASTIEN 00:43:50 32 909 RCA SPA 00:04:03 14.78
48 1024 SCHWAIGER FELIX 00:43:53 4 907 L AMICAUSE 00:04:03 14.77
49 6 BAILLY LUC 00:43:54 8 906 RFCL ROADRUNNERS 00:04:03 14.76
50 2075 BASTIN ROBERT 00:43:56 9 904 . 00:04:04 14.75
51 1851 MACKELS DANIEL 00:43:56 10 902 BUTGENBACH 00:04:04 14.75
52 363 CHOLEWKA TOM 00:44:00 5 900 . 00:04:04 14.73
53 1997 BLEROT DIDER 00:44:01 11 898 . 00:04:04 14.72
54 2102 WINKIN CHRISTOPHE 00:44:03 33 896 . 00:04:04 14.71
55 1757 GOBATTO MARIO 00:44:04 34 894 . 00:04:04 14.70
56 1984 FRANSOLET YVES 00:44:08 6 892 BOITHEUX 00:04:05 14.68
57 2104 FRANCOIS JORDAN 00:44:11 35 890 JOGGING CLUB 00:04:05 14.67
58 1776 LODEZ J MICHEL 00:44:21 12 888 BOITHEUY 00:04:06 14.61
59 2073 JACOB FRANCOIS 00:44:22 36 886 . 00:04:06 14.61
60 1909 BASTIN THIERRY 00:44:29 13 884 SDERUNNERS 00:04:07 14.57
61 407 ROUFOSSE JOEFREY 00:44:31 14 882 . 00:04:07 14.56
62 48 WAERTS ALAIN 00:44:34 1 880 SER ATHL 00:04:07 14.54
63 448 GARIN YVES 00:44:36 15 878 . 00:04:07 14.53
64 144 CHRISTODOULEAS PATRICK 00:44:58 16 876 JOG IN ATTITUDE 00:04:09 14.41
65 145 VAN KERKOVEN MARTIN 00:45:03 37 874 AMC 00:04:10 14.38
66 1787 NOEL PHILIPPE 00:45:09 17 872 . 00:04:10 14.35
67 1768 FRANSOLET JONATHANT 00:45:20 38 870 TTF 00:04:11 14.29
68 1785 BAIVIER HUGO 00:45:22 6 868 HF 00:04:12 14.28
69 2213 CHARLES ANTOINE 00:45:22 39 866 FAT TEAM 00:04:12 14.28
70 128 VEGA SEVERINO 00:45:24 18 864 SER ATHL 00:04:12 14.27
71 1825 BORN ALAIN 00:45:26 19 862 . 00:04:12 14.26
72 137 SENDEN JOAN 00:45:27 7 860 AJVC 00:04:12 14.26
73 1770 DELANDSHEERE LIONEL 00:45:28 40 858 TTF 00:04:12 14.25
74 1938 BOUMANS ERIC 00:45:29 41 856 . 00:04:12 14.25
75 391 LELOUP PASCAL 00:45:33 42 854 SER ATHL 00:04:13 14.23
76 9 DISPAS CELINE 00:45:36 1 852 . 00:04:13 14.21
77 1867 LEHANCE PASCAL 00:45:36 20 850 RFCL 00:04:13 14.21
78 1912 SKUPEWSKI GREGORY 00:45:37 43 848 . 00:04:13 14.21
79 2129 JURDAN RAPHAEL 00:45:51 44 846 TTF 00:04:14 14.13
80 2078 BROUWERS MICHAEL 00:46:02 45 844 TDCH 00:04:15 14.08
81 2098 LEGROS RAPHAEL 00:46:06 46 843 . 00:04:16 14.06
82 1910 VAESEN PHILIPPE 00:46:13 47 841 . 00:04:16 14.02
83 2058 JASPAR JULIEN 00:46:18 48 839 . 00:04:17 14.00
84 44 FREDERICH DOMINIQUE 00:46:21 1 837 HERVE 00:04:17 13.98
85 2088 DELHASSE FREDERIC 00:46:30 49 835 . 00:04:18 13.94
86 1013 BAUTE BENOIT 00:46:33 21 833 . 00:04:18 13.92
87 1858 LHERMITTE MICHEL 00:46:41 22 831 RCA SPA 00:04:19 13.88
88 1880 DAUMEN PIERRE 00:46:49 8 829 ENERGY TRI 00:04:20 13.84
89 1954 SONTAG THIERRY 00:46:51 50 827 . 00:04:20 13.83
90 2120 HUBIN PIERRE 00:46:56 51 825 . 00:04:20 13.81
91 1018 LEFEBVRE LUC 00:46:58 9 823 . 00:04:20 13.80
92 1893 FASSIN ARMAND 00:47:00 10 821 BACSPA 00:04:21 13.79
93 5 MATHOT RICHARD 00:47:01 11 819 LBC 00:04:21 13.78
94 1033 LIEGEOIS MARC 00:47:01 23 817 . 00:04:21 13.78
95 2080 FEYEN PATRICK 00:47:05 52 815 AC EIFEL 00:04:21 13.76
96 1962 CRUTZE REMY 00:47:06 53 813 . 00:04:21 13.76
97 127 VANHERE ARNAUD 00:47:09 54 811 . 00:04:21 13.74
98 1840 MEYS CLAUDE 00:47:14 24 809 RCA SPA 00:04:22 13.72
99 89 LUX RALPH 00:47:15 25 807 ERTK LA CALAMINE 00:04:22 13.71
100 1786 BEUKEN DIDIER 00:47:27 26 805 . 00:04:23 13.66
101 1767 PAROTTE CHRISTOPHE 00:47:33 27 803 TTF 00:04:24 13.63
102 1766 BEBAAR J JACQUES 00:47:38 12 801 TTF 00:04:24 13.60
103 2071 HERNANDEZ MANUEL 00:47:46 28 799 . 00:04:25 13.57
104 377 DOSSERAY ROGER 00:47:52 2 797 . 00:04:25 13.54
105 2092 DOGNE JEAN 00:47:53 55 795 . 00:04:26 13.53
106 1936 WERY MICHEL 00:47:57 13 793 . 00:04:26 13.51
107 1831 FAUTRE J CLAUDE 00:48:01 14 791 . 00:04:26 13.50
108 1882 LEONARD AXEL 00:48:03 56 789 . 00:04:26 13.49
109 41 ERPICUM GUILLAUME 00:48:08 57 787 KINEO 00:04:27 13.46
110 1973 DE RIDDER OLIVIER 00:48:09 58 785 ETHIAS 00:04:27 13.46
111 1841 HERZET FRED 00:48:10 59 783 TEAM RAIDNIGHT 00:04:27 13.45
112 1818 DEMOULIN CHRISTOPHE 00:48:11 60 781 . 00:04:27 13.45
113 405 RIGO MICHEL 00:48:11 61 780 . 00:04:27 13.45
114 1821 VIRGILIO GIOVANNI 00:48:13 29 778 CAP NRB 00:04:27 13.44
115 1745 TROUDI KAMEL 00:48:10 15 776 . 00:04:27 13.45
116 1855 NAWYN BENJAMIN 00:48:10 30 774 LAVENIR 00:04:27 13.45
117 1983 LEMAIRE MICHEL 00:48:23 16 772 RCA SPA 00:04:28 13.39
118 42 BOURSIE JOSEPH 00:48:29 3 770 ERTK 00:04:29 13.37
119 2095 RONKART PHILIPPE 00:48:31 31 768 . 00:04:29 13.36
120 1010 DAVID PATRICK 00:48:35 17 766 JCPMF MALMEDY 00:04:29 13.34
121 1921 GRUSELIN STEVE 00:48:40 62 764 . 00:04:30 13.32
122 249 LEBOUTTE GILLES 00:48:43 63 762 . 00:04:30 13.30
123 988 RASSART MARC 00:48:45 32 760 . 00:04:30 13.29
124 2165 BRAGARD ALEXANDRE 00:48:48 64 758 . 00:04:31 13.28
125 1780 STRYKERS FRANCOIS 00:48:50 65 756 RUNNERS TEAM SPRIMONT 00:04:31 13.27
126 1748 DEWEZ YVES 00:48:51 33 754 . 00:04:31 13.27
127 1919 BOULANGER JACQUES 00:48:52 34 752 LAMICAUSE 00:04:31 13.26
128 1016 ETIENNE MICHEL 00:48:56 35 750 . 00:04:31 13.24
129 1940 JASPAR CHRISTIAN 00:48:56 4 748 . 00:04:31 13.24
130 415 STICCA NICOLA 00:49:02 36 746 HJM 00:04:32 13.22
131 1913 BENOIT ERIC 00:49:03 66 744 . 00:04:32 13.21
132 2140 ROOMANS BENOIT 00:49:09 67 742 XPTEAM 00:04:33 13.18
133 1958 DOYEN LUDOVIC 00:49:11 7 740 . 00:04:33 13.18
134 434 CUPPENS BENOIT 00:49:13 68 738 . 00:04:33 13.17
135 1996 BEAUVE MARC 00:49:14 37 736 . 00:04:33 13.16
136 1736 HALLEUX LIONEL 00:49:15 38 734 . 00:04:33 13.16
137 1775 SIMAR J LUC 00:49:17 39 732 . 00:04:33 13.15
138 1985 LEMARCOTTE JOHNNY 00:49:18 40 730 KINEO 00:04:33 13.14
139 1036 CARABIN CHRISTOPHE 00:49:20 41 728 L AMICAUSE 00:04:34 13.14
140 1934 COLLIN DIDIER 00:49:22 42 726 . 00:04:34 13.13
141 1976 FRANKINET PIERRE 00:49:23 69 724 EPICURIENS 00:04:34 13.12
142 1028 HERMANS MARC 00:49:24 18 722 AC HERVE 00:04:34 13.12
143 1863 DEMARET GREGORY 00:49:27 70 720 . 00:04:34 13.10
144 1774 MALMENDIER MATHIEU 00:49:32 71 719 ZMF 00:04:35 13.08
145 2185 BRACH GERMAIN 00:49:39 8 717 . 00:04:35 13.05
146 1956 THIRIFAYS DELPHINE 00:49:44 1 715 . 00:04:36 13.03
147 1905 LECOQ GEOFFREY 00:49:51 72 713 . 00:04:36 13.00
148 372 DEGHAYE BERNARD 00:49:54 43 711 . 00:04:37 12.99
149 2069 GYSEN GERALD 00:50:03 73 709 . 00:04:38 12.95
150 21 JAMIN DOMINIQUE 00:50:04 74 707 . 00:04:38 12.94
151 387 JENNEN PATRICK 00:50:06 44 705 . 00:04:38 12.93
152 482 MILAN DANIELE 00:50:08 45 703 CAP NRB 00:04:38 12.93
153 1866 PIERRE FABIAN 00:50:16 75 701 . 00:04:39 12.89
154 69 JULIN PASCAL 00:50:19 76 699 INTERSPORT 00:04:39 12.88
155 1908 PIERRAT LAURENT 00:50:31 77 697 . 00:04:40 12.83
156 1002 LAMOTTE VALERY 00:50:36 46 695 . 00:04:41 12.81
157 124 VICKEVORST CEDRIC 00:50:37 78 693 BELGACOM 00:04:41 12.80
158 2164 GAVAZZA VINCENT 00:50:39 47 691 L AMICAUSE 00:04:41 12.79
159 1933 JEROME J MARIE 00:50:49 19 689 . 00:04:42 12.75
160 1790 BONA GUY 00:50:51 5 687 SERUNNERS 00:04:42 12.74
161 2160 BRASSEUR FRED 00:50:52 48 685 . 00:04:42 12.74
162 1743 CLAES LAURENT 00:50:58 49 683 . 00:04:43 12.71
163 2072 DELINCE GEOFFREY 00:50:58 79 681 . 00:04:43 12.71
164 103 EVRARD FREDERIC 00:51:01 80 679 KINEO 00:04:43 12.70
165 986 EL BALDI SAID 00:51:02 50 677 . 00:04:43 12.70
166 1857 HAVARD PHILIPPE 00:51:04 81 675 . 00:04:43 12.69
167 427 BERTONI JOEL 00:51:06 20 673 . 00:04:43 12.68
168 1847 LICATA GIOVANNI 00:51:08 51 671 . 00:04:44 12.67
169 1991 VANAS NATHALIE 00:51:10 2 669 RCA SPA 00:04:44 12.66
170 1815 PIRSON FABIEN 00:51:14 52 667 . 00:04:44 12.65
171 496 HILDERSON LUC 00:51:15 6 665 . 00:04:44 12.64
172 1817 ALBERT VALERIE 00:51:18 82 663 . 00:04:45 12.63
173 1758 DIEPART NICOLAS 00:51:22 83 661 ENERGYTRI 00:04:45 12.62
174 1942 TOUSSAINT MAXIME 00:51:23 84 659 . 00:04:45 12.61
175 1763 MALO JEAN 00:51:20 21 657 TTF 00:04:45 12.62
176 1824 BOUDRON PAUL 00:51:28 9 656 . 00:04:45 12.59
177 1823 BOUDRON J BAPTISTE 00:51:28 53 654 FCB BCF 00:04:45 12.59
178 1961 CRUTZE SIMON 00:51:29 85 652 . 00:04:46 12.59
179 143 HOEBREGS LAURENT 00:51:29 86 650 . 00:04:46 12.59
180 2182 BOULANGER CEDRIC 00:51:37 87 648 L AMICAUSE 00:04:46 12.55
181 1914 BASTIN MARCEL 00:51:37 54 646 . 00:04:46 12.55
182 1904 TILMAN RAPHAEL 00:51:39 88 644 . 00:04:46 12.55
183 493 COOSEMANS ROMUALD 00:51:40 89 642 . 00:04:47 12.54
184 1765 BASTIN J YVES 00:51:42 55 640 . 00:04:47 12.53
185 1828 BRANCE JOSE 00:51:53 56 638 . 00:04:48 12.49
186 2117 DAENEN FREDERIC 00:51:55 57 636 . 00:04:48 12.48
187 460 CANNARSA MARIO 00:52:00 58 634 SER ATHL 00:04:48 12.46
188 78 THIRION ALAIN 00:52:01 22 632 RFCL 00:04:48 12.46
189 1887 MINEO FRANCO 00:52:05 23 630 . 00:04:49 12.44
190 1744 LAURENT CHRISTOPHE 00:52:08 59 628 . 00:04:49 12.43
191 2154 VANBRABANT RAPHAEL 00:52:09 90 626 . 00:04:49 12.43
192 1735 MELISEM CHRISTELLE 00:52:10 3 624 BOUTHEUX 00:04:49 12.42
193 1891 DELVAUX BENOIT 00:52:12 91 622 . 00:04:50 12.41
194 1809 DENOEL JACQUES 00:52:14 24 620 . 00:04:50 12.41
195 2138 DEVIGNE J MICHEL 00:52:15 92 618 . 00:04:50 12.40
196 2161 HICK STEPHAN 00:52:16 93 616 . 00:04:50 12.40
197 1047 MALMENDIER QUENTIN 00:52:17 10 614 . 00:04:50 12.39
198 439 MANCINI MICHEL 00:52:21 7 612 SER ATHL 00:04:50 12.38
199 2081 FEYEN DANNY 00:52:24 60 610 AC EIFEL 00:04:51 12.37
200 250 WERY BENJAMIN 00:52:28 94 608 . 00:04:51 12.35
201 2212 WISLEZ FREDDY 00:52:33 8 606 . 00:04:51 12.33
202 1777 NICAISE SEVERIEN 00:52:33 4 604 . 00:04:51 12.33
203 1915 JANSEN PIERRE 00:52:34 61 602 . 00:04:52 12.33
204 2139 CHARLIER ALEXANDRE 00:52:35 95 600 . 00:04:52 12.32
205 1990 DUOPUIS MICHEL 00:52:36 25 598 . 00:04:52 12.32
206 1930 LAMBERT CHRISTOPHE 00:52:37 96 596 . 00:04:52 12.32
207 1853 EMONTS XAVIER 00:52:37 97 594 . 00:04:52 12.32
208 1819 DUMONT MARTIN 00:52:40 11 593 . 00:04:52 12.30
209 1801 DECKERS J LOUIS 00:52:40 62 591 HERMALLE SOUS HUY 00:04:52 12.30
210 2112 BOLLAND DJAVAN 00:52:41 98 589 . 00:04:52 12.30
211 404 RIBANT THIERRY 00:52:47 63 587 . 00:04:53 12.28
212 1804 NOVILLE CHRISTIANA 00:52:48 5 585 SERATHLE 00:04:53 12.27
213 1927 GRISARD QUENTIN 00:52:48 99 583 . 00:04:53 12.27
214 1967 HENRADO CEDRIC 00:52:50 100 581 . 00:04:53 12.26
215 1916 ARENALLO CLAUDIA 00:52:52 6 579 . 00:04:53 12.26
216 1993 VIELLEVEYE DIDIER 00:52:53 64 577 . 00:04:53 12.25
217 2158 BOONEN FABRICE 00:52:56 101 575 . 00:04:54 12.24
218 2103 BONVOISIN P HENRI 00:53:01 102 573 . 00:04:54 12.22
219 1031 CIULLA JOSEPH 00:53:03 65 571 SERUNNERS 00:04:54 12.21
220 1022 FETTWEIS TATIANA 00:53:09 1 569 . 00:04:55 12.19
221 1783 DROGUET VINCENT 00:53:12 66 567 . 00:04:55 12.18
222 1021 KERENS ANNE 00:53:13 2 565 SERUNNERS 00:04:55 12.18
223 356 BATTISTINI LUCIANO 00:53:15 26 563 . 00:04:55 12.17
224 2155 VAN LITSENBORGH GILLES 00:53:17 103 561 . 00:04:56 12.16
225 1885 CAMPISI CIRO 00:53:25 67 559 . 00:04:56 12.13
226 1810 LEMOINE MICHEL 00:53:27 68 557 JCR 00:04:56 12.12
227 35 LARMINIER CLAUDE 00:53:28 27 555 SERUNNER 00:04:57 12.12
228 2184 BOULANGER NATHALIE 00:53:28 7 553 L AMICAUSE 00:04:57 12.12
229 2183 BOULANGER EMMANUEL 00:53:28 69 551 L AMICAUSE 00:04:57 12.12
230 56 DAMAN GILLES 00:53:28 12 549 VORTAL 00:04:57 12.12
231 2126 SCHNAKERS ARNAUD 00:53:31 104 547 . 00:04:57 12.11
232 2211 DEFRECHEREUX J LUC 00:53:35 28 545 . 00:04:57 12.09
233 366 BADENBERG BERNARD 00:53:38 70 543 . 00:04:57 12.08
234 45 NOKIN CHRISTIAN 00:53:42 71 541 . 00:04:58 12.07
235 1972 GODFIRNON HENRI BRUNO 00:53:47 105 539 . 00:04:58 12.05
236 1902 PETERS BAPTISTE 00:53:47 106 537 TTF 00:04:58 12.05
237 1839 DEVILLE MICHEL 00:53:50 29 535 CHAL LE JOUR 00:04:59 12.04
238 1739 FISCHER RENAUD 00:53:54 72 533 L AMICAUSE 00:04:59 12.02
239 1941 VANLOO XAVIER 00:53:55 107 531 . 00:04:59 12.02
240 2099 DE MARCO ERIC 00:53:59 108 530 . 00:04:59 12.00
241 1011 FERON NATHAN 00:54:11 13 528 FLEMALLE 00:05:01 11.96
242 381 GUERRINI SEBASTIEN 00:54:18 109 526 . 00:05:01 11.93
243 102 MORANA EDUARDO 00:54:29 73 524 . 00:05:02 11.89
244 2090 JANS ROMAIN 00:54:31 110 522 . 00:05:02 11.89
245 1738 VADALA ANDREA 00:54:34 74 520 ZATAC 2013 00:05:03 11.88
246 1836 BRIALMONT IRENE 00:54:34 3 518 ZATAC 00:05:03 11.88
247 1888 HERMAN ELODIE 00:54:34 2 516 COACH MAMOUR 00:05:03 11.88
248 453 BURNIAT OLIVIER 00:54:36 111 514 . 00:05:03 11.87
249 107 EGGEN RONY 00:54:38 9 512 . 00:05:03 11.86
250 1897 ROSU AUNER 00:54:41 10 510 ENERGYTRI 00:05:03 11.85
251 1032 PINCIC MARKO 00:54:45 11 508 SERUNNERS 00:05:04 11.84
252 450 MAKA ALEXANDRE 00:54:47 30 506 TRAIL CA FLEMALLE 00:05:04 11.83
253 1900 LEGROS BERNARD 00:54:49 75 504 . 00:05:04 11.82
254 1850 VROMEN P YVES 00:54:55 112 502 CHALLENGE 00:05:05 11.80
255 2130 KAZMIECZAK ERIC 00:54:57 31 500 . 00:05:05 11.79
256 1023 GRAFF MICHEL 00:55:00 32 498 . 00:05:05 11.78
257 1822 GALAIS J PHILIPPE 00:55:03 76 496 . 00:05:05 11.77
258 1875 ROMOLI J PIERRE 00:55:10 77 494 . 00:05:06 11.75
259 408 SAGGIORATO LUIGI 00:55:14 12 492 SERUNNER 00:05:06 11.73
260 1030 WOJCIK ERIC 00:55:15 78 490 SERUNNERS 00:05:06 11.73
261 117 DUFOURNY MORGANE 00:55:19 2 488 FLEMALLE 00:05:07 11.71
262 462 THONNARD MARC 00:55:22 33 486 . 00:05:07 11.70
263 1019 MINGUET LAURENCE 00:55:28 8 484 BOITHEUX 00:05:08 11.68
264 1864 CUIPERS WILLY 00:55:36 13 482 SERUNNERS 00:05:08 11.65
265 2087 LANGHOOR BENOIT 00:55:38 113 480 . 00:05:09 11.65
266 1833 PLECKSPAEN PHILIPPE 00:55:41 34 478 . 00:05:09 11.64
267 1865 EBEN GUY 00:55:41 14 476 SERUNNERS 00:05:09 11.64
268 1884 PRICKARTZ GERALD 00:55:57 114 474 FAGN HARD TEAM TRAIL 00:05:10 11.58
269 1989 TEMPELS ALAIN 00:55:58 35 472 LAVENIR 00:05:10 11.58
270 1883 HOWARD BENE 00:55:58 9 470 FAGN HARD TEAM TRAIL 00:05:10 11.58
271 437 BECKERS PASCAL 00:56:00 79 469 . 00:05:11 11.57
272 1811 FREYMANN THOMAS 00:56:00 115 467 . 00:05:11 11.57
273 2215 PALM RACHEL 00:56:01 3 465 . 00:05:11 11.57
274 2074 HUYNEN PATRICK 00:56:02 80 463 . 00:05:11 11.56
275 2057 LAUWERS DAVID 00:56:03 116 461 . 00:05:11 11.56
276 2181 GERKENS DAMIEN 00:56:04 117 459 . 00:05:11 11.56
277 1038 REGNIER DIDIER 00:56:08 81 457 ZAFTERS 00:05:11 11.54
278 1737 LEJEUNE DAVID 00:56:08 118 455 . 00:05:11 11.54
279 1862 PITZ BERNARD 00:56:11 36 453 RCA SPA 00:05:12 11.53
280 1935 BRACKE JULIE 00:56:12 10 451 . 00:05:12 11.53
281 1987 DEMEZ FRANCOIS 00:56:13 119 449 . 00:05:12 11.53
282 1848 GRZESINSKI BERNARD 00:56:14 37 447 SERUNNERS 00:05:12 11.52
283 1992 JACQUES ETIENNE 00:56:17 120 445 . 00:05:12 11.51
284 1869 ROMAIN XAVIER 00:56:17 82 443 L AMICAUSE 00:05:12 11.51
285 461 RASQUIN DIDIER 00:56:17 121 441 . 00:05:12 11.51
286 253 VOLPE MONICA 00:56:19 4 439 JOG IN ATTITUDE 00:05:12 11.51
287 421 GANTOIS GERALD 00:56:30 83 437 TCBM 00:05:13 11.47
288 2061 GOHY PATRICK 00:56:38 84 435 . 00:05:14 11.44
289 375 DEMOLLIN MARC 00:56:41 38 433 . 00:05:14 11.43
290 1042 BERTRAND YVES 00:56:43 85 431 BOITHEUX 00:05:15 11.43
291 1829 BOVY MARC 00:56:43 39 429 SPA 00:05:15 11.43
292 1846 MARTIN RENAUD 00:56:46 122 427 RAFF 00:05:15 11.42
293 364 CIOPPA FRANCO 00:56:54 86 425 NAPOLI 00:05:16 11.39
294 374 D HOEY CHRISTIAN 00:56:57 40 423 . 00:05:16 11.38
295 2128 BARTHELEMY ANOUCK 00:56:59 4 421 TTF 00:05:16 11.37
296 1872 MATHIEU HADRIEN 00:57:00 0 . 00:05:16 11.37
297 1769 DENIS J CLAUDE 00:57:02 15 419 TTF 00:05:16 11.36
298 1923 ACEDO SANCHO CARLOS 00:57:03 123 417 L AVENIR 00:05:16 11.36
299 1966 SCHINELLI PATRICE 00:57:03 87 415 . 00:05:16 11.36
300 1878 VROMAN TOM 00:57:07 124 413 . 00:05:17 11.35
301 1006 CLOSE DOMINIQUE 00:57:09 41 411 . 00:05:17 11.34
302 2082 BRIKA ARNAUD 00:57:10 125 409 TTF SPA 00:05:17 11.34
303 1012 FERON J MARC 00:57:11 88 407 . 00:05:17 11.33
304 2070 CRUZ FILIPE 00:57:11 126 406 . 00:05:17 11.33
305 2118 MUERMANS GUY 00:57:14 89 404 . 00:05:17 11.32
306 984 BARTELET JOEL 00:57:17 16 402 BOITHEUX 00:05:18 11.31
307 1753 BASSLEER OLIVIER 00:57:18 90 400 . 00:05:18 11.31
308 1947 LESAGE OLIVIER 00:57:18 127 398 . 00:05:18 11.31
309 2056 LEVAUX COLINE 00:57:19 5 396 . 00:05:18 11.31
310 1802 THISS MAC 00:57:19 42 394 JCR 00:05:18 11.31
311 2186 ZANGERLE BRIGITTE 00:57:23 43 392 CHALLENGE LAVENIR 00:05:18 11.29
312 2089 HANS JULIEN 00:57:24 128 390 ELOY 00:05:18 11.29
313 424 VISCONTI SALVATORE 00:57:24 129 388 . 00:05:18 11.29
314 1895 OVERSTEYNS BRUNO 00:57:25 130 386 . 00:05:18 11.29
315 2100 STRABEL PHILIPPE 00:57:26 91 384 CH LAVENIR 00:05:19 11.28
316 2114 CLOSON GILLES 00:57:26 131 382 . 00:05:19 11.28
317 1026 SCHWAIGER CLAIRE 00:57:27 11 380 L AMICAUSE 00:05:19 11.28
318 357 BERG NICOLAS 00:57:28 44 378 . 00:05:19 11.28
319 1812 COUNOTTE XAVIER 00:57:30 132 376 . 00:05:19 11.27
320 2152 DROUVEN JOEL 00:57:30 92 374 R44 00:05:19 11.27
321 1007 DETRY PHILIPPE 00:57:34 45 372 CHALLENGE LAVENIR 00:05:19 11.26
322 57 DAMAN LUCIE 00:57:35 3 370 VORTAL 00:05:19 11.25
323 362 CARACINI MARCELLO 00:57:39 46 368 . 00:05:20 11.24
324 2134 PIQUERAY CECILIA 00:57:42 6 366 . 00:05:20 11.23
325 2131 PIQUERAY STEPHAN 00:57:42 47 364 . 00:05:20 11.23
326 2059 BRAGARD GREGORY 00:57:43 133 362 . 00:05:20 11.23
327 985 MARTUCCI ANNICK 00:57:44 12 360 . 00:05:20 11.22
328 1988 MEURENS BRUNO 00:57:46 134 358 . 00:05:20 11.22
329 1843 CORNET DEPLHINE 00:57:47 13 356 . 00:05:21 11.21
330 1932 LABASSE CHRISTINE 00:57:47 5 354 . 00:05:21 11.21
331 1754 DEPAS MARCEL 00:57:50 17 352 SERUNNERS SERAING 00:05:21 11.20
332 1994 EVRAKO AUDE 00:57:52 7 350 HERVE 00:05:21 11.20
333 1922 COLLIN STEFAN 00:57:52 93 348 . 00:05:21 11.20
334 114 HURLET BERNARD 00:58:05 18 346 . 00:05:22 11.16
335 94 PONCELET CATHERINE 00:58:05 14 344 . 00:05:22 11.16
336 2096 MEUNIER NICOLAS 00:58:16 135 343 . 00:05:23 11.12
337 92 MAGE ALAIN 00:58:19 48 341 RIAAC 00:05:23 11.11
338 1870 WEBER GERTY 00:58:24 6 339 MAT 00:05:24 11.10
339 1854 SCHYNS LUCIEN 00:58:25 49 337 . 00:05:24 11.09
340 1980 GILSON EVELYNE 00:58:26 7 335 . 00:05:24 11.09
341 1981 GILSON MARC 00:58:26 50 333 . 00:05:24 11.09
342 1816 KERSCHEN VANESSA 00:58:30 8 331 . 00:05:25 11.08
343 72 URBANI JEAN MARC 00:58:33 94 329 SER ATHL 00:05:25 11.07
344 1037 AZZOLINI ADRIANO 00:58:34 51 327 SERUNNERS 00:05:25 11.06
345 2066 MOUREAU FREDERIC 00:58:36 14 325 RAIL 38 00:05:25 11.06
346 1789 MOREAU LUC 00:58:37 136 323 BOITHEUX 00:05:25 11.05
347 1928 BLODEN BENJAMIN 00:58:38 137 321 . 00:05:25 11.05
348 1959 JEUCKENS EMMANUEL 00:58:40 95 319 . 00:05:25 11.05
349 1999 TERWAGNE PIERRE 00:58:41 138 317 . 00:05:26 11.04
350 1845 MARTIN GILLES 00:58:46 139 315 . 00:05:26 11.03
351 2122 SERVAIS LIONEL 00:58:51 140 313 . 00:05:26 11.01
352 1871 BASTIN PAUL 00:58:55 19 311 MAT 00:05:27 11.00
353 409 SCHOONBROODT LEON 00:58:58 20 309 EUPEN 00:05:27 10.99
354 2121 VANDEWEYER LUDIVINE 00:59:00 15 307 . 00:05:27 10.98
355 1995 SOUPLET MICHEL 00:59:01 52 305 SERUNNERS 00:05:27 10.98
356 1731 BEAUVE FABIENNE 00:59:03 8 303 . 00:05:28 10.97
357 400 PESSER ALAIN 00:59:04 96 301 L AVENIR 00:05:28 10.97
358 1949 DAENEN MARTINE 00:59:06 9 299 . 00:05:28 10.96
359 1948 PHILIPPE RENE 00:59:09 21 297 . 00:05:28 10.96
360 2060 BASTIN VINCENT 00:59:10 141 295 . 00:05:28 10.95
361 430 CLERFAYS HUBERT 00:59:11 53 293 HAC COURT SANT 00:05:28 10.95
362 403 URSA PHILIPPE 00:59:12 97 291 . 00:05:28 10.95
363 1756 BUVENS MURIELLE 00:59:13 10 289 LAVENIR 00:05:28 10.94
364 2076 BASTIN ISABELLE 00:59:24 16 287 LES BOITEUX 00:05:30 10.91
365 95 GERRENS DANIEL 00:59:34 22 285 . 00:05:30 10.88
366 486 BLAISE PIERRE 00:59:37 142 283 . 00:05:31 10.87
367 1960 WEY LINDA 00:59:45 17 281 . 00:05:31 10.85
368 1975 COLLAS DOMINIQUE 00:59:45 11 280 . 00:05:31 10.85
369 1901 DABOIS MAXIME 00:59:50 143 278 . 00:05:32 10.83
370 442 PIRLET AMELIE 00:59:51 9 276 JOG IN ATTITUDE 00:05:32 10.83
371 1955 WOOS OLIVIER 00:59:52 144 274 . 00:05:32 10.82
372 2115 THONNARD SEVERINE 00:59:54 10 272 . 00:05:32 10.82
373 2116 ROSA HUGUES 00:59:54 145 270 . 00:05:32 10.82
374 1762 MACQUET LAURENCE 01:00:01 18 268 BOTTHEUX 00:05:33 10.80
375 1759 COLLETTE PATCO 01:00:06 98 266 . 00:05:33 10.78
376 1803 THISS MAGIC 01:00:06 99 264 JCR 00:05:33 10.78
377 1918 FERNANDEZ BERNARD 01:00:08 100 262 . 00:05:34 10.78
378 449 VICKEVORST LUC 01:00:24 54 260 BELGACOM 00:05:35 10.73
379 1779 LORQUET MARC 01:00:27 101 258 ZAFTERS 00:05:35 10.72
380 75 FORTEMPS EDGARD 01:00:32 102 256 . 00:05:36 10.70
381 1733 LEONARD MARC 01:00:33 103 254 POLLEUR 00:05:36 10.70
382 61 DAMAN MARCO 01:00:35 104 252 VORTAL 00:05:36 10.70
383 989 VANKERKHOVEN XAVIER 01:00:35 105 250 AMC 00:05:36 10.70
384 428 BERTONI JENNY 01:00:37 12 248 . 00:05:36 10.69
385 1894 LICATA GIOVANNI 01:00:43 146 246 . 00:05:37 10.67
386 1874 MATHIEU PIERRE 01:00:43 106 244 . 00:05:37 10.67
387 1772 BOLLAND JONATHAN 01:00:43 147 242 . 00:05:37 10.67
388 1879 MANSET GREGORY 01:00:45 148 240 AMB 00:05:37 10.67
389 1907 PROPS SYLVAIN 01:00:46 107 238 BOITHEUX 00:05:37 10.66
390 1015 LAHAYE COLETTE 01:00:47 13 236 LAVENIR 00:05:37 10.66
391 1899 RENARD BERNARD 01:00:50 55 234 . 00:05:37 10.65
392 1986 SINIARSKI OLIVIER 01:00:53 108 232 KINEO 00:05:38 10.64
393 2083 DARIMONT JOCELYNE 01:00:56 14 230 . 00:05:38 10.63
394 2094 WERTZ BERNARD 01:00:57 56 228 . 00:05:38 10.63
395 243 LECOMPTE FREDERIC 01:00:58 149 226 . 00:05:38 10.63
396 983 BARTELEM DANIELLE 01:01:04 15 224 BOITHEUX 00:05:39 10.61
397 88 NELHIEBEL GYULA 01:01:07 109 222 . 00:05:39 10.60
398 1781 HAMERS HARRY 01:01:09 57 220 STB LANDGRAAF 00:05:39 10.60
399 1761 MACQUET J MARC 01:01:10 110 219 BOTTHEUX 00:05:39 10.59
400 1035 DELWAIDE ANNE 01:01:17 16 217 CH LAVENIR 00:05:40 10.57
401 987 DE SMET JACQUES 01:01:22 23 215 SERUNNERS 00:05:40 10.56
402 1849 VANDERMISSEN PATRICIA 01:01:27 58 213 SERUNNERS 00:05:41 10.55
403 1008 PESSER RENE 01:01:29 59 211 . 00:05:41 10.54
404 2136 FETTWEIS THIERRY 01:01:32 60 209 LAVENIR 00:05:41 10.53
405 1001 GALANT AURORE 01:01:37 11 207 ZATAC 00:05:42 10.52
406 1740 HALKIN PIERRE 01:01:41 111 205 . 00:05:42 10.51
407 1873 MINGUET CATHERINE 01:01:45 19 203 . 00:05:43 10.49
408 2063 BRANDT LAETITIA 01:01:48 12 201 RAIL 38 00:05:43 10.49
409 2064 EYEN CLAIRE 01:01:50 20 199 RAIL 38 00:05:43 10.48
410 2062 PLOEMMEN JANINE 01:01:50 17 197 RAIL 38 00:05:43 10.48
411 1974 PIELA RUDY 01:01:52 150 195 . 00:05:43 10.47
412 2106 ROLLAND NICOLAS 01:02:11 0 . 00:05:45 10.42
413 2105 VAN RYMENAM MICHAEL 01:02:12 151 193 . 00:05:45 10.42
414 383 HAMBUCKEN HENRI 01:02:13 24 191 . 00:05:45 10.42
415 1998 JACQUES A CLAIRE 01:02:18 13 189 . 00:05:46 10.40
416 2065 SCHAUS CARINE 01:02:18 14 187 . 00:05:46 10.40
417 411 SPELGATTI RAFAEL 01:02:19 112 185 . 00:05:46 10.40
418 1834 FINCK FRANCIS 01:02:26 113 183 ZATAC 00:05:46 10.38
419 1830 VANTRAPPE SYLVIE 01:02:26 18 181 . 00:05:46 10.38
420 1943 BLOEMEKS KRISTEL 01:02:30 15 179 . 00:05:47 10.37
421 2077 PASQUAZZO FLORENCE 01:02:35 21 177 . 00:05:47 10.35
422 1977 DEDEE CLAUDINE 01:02:45 19 175 . 00:05:48 10.33
423 1773 FREYMANN ODILE 01:02:50 20 173 . 00:05:49 10.31
424 2110 LARMINIER A MARIE 01:03:10 21 171 . 00:05:50 10.26
425 399 PAROTTE SIMONE 01:03:13 22 169 . 00:05:51 10.25
426 1964 GIBUCA YANICK 01:03:15 152 167 . 00:05:51 10.25
427 1929 ABAD LAMAS HAYDEE 01:03:22 23 165 . 00:05:52 10.23
428 1886 CYPERS J LUC 01:03:25 114 163 . 00:05:52 10.22
429 1969 THILMAN CHRISTINE 01:03:28 16 161 . 00:05:52 10.21
430 2113 JANS DELPHINE 01:03:33 17 159 . 00:05:53 10.20
431 101 THIELENS ERIC 01:03:34 115 157 . 00:05:53 10.19
432 2093 HICK P PHILIPPE 01:03:49 153 156 . 00:05:54 10.15
433 1890 LOVENBERG GUY 01:03:49 61 154 AVENIR 00:05:54 10.15
434 2091 MONAMI JEROME 01:03:50 154 152 . 00:05:54 10.15
435 2135 ERNOULD MARIE 01:04:09 18 150 . 00:05:56 10.10
436 1889 DUJARDIN GERALDINE 01:04:15 19 148 . 00:05:56 10.09
437 1799 MAHUTE CAMILLE 01:04:15 0 . 00:05:56 10.09
438 1861 MAHUTE VINCENT 01:04:16 116 146 . 00:05:57 10.08
439 2189 TIMMERMANS AURELIE 01:04:16 20 144 . 00:05:57 10.08
440 2107 ROYEN MARIE 01:04:16 22 142 . 00:05:57 10.08
441 2190 EVRARD FRANCOISE 01:04:16 21 140 HERVE 00:05:57 10.08
442 2162 WERY A MARIE 01:04:35 24 138 . 00:05:58 10.03
443 2163 HEUSE FRANCK 01:04:35 117 136 ENERGY TRI 00:05:58 10.03
444 473 CLAES MARGAUX 01:04:39 4 134 AC VISE 00:05:59 10.02
445 1917 DEWALQUE THIERRY 01:04:42 118 132 AMB 00:05:59 10.02
446 2084 TRIJASSE MARTINE 01:04:46 25 130 . 00:05:59 10.01
447 2085 LONNOY BERNADETTE 01:04:46 26 128 . 00:05:59 10.01
448 1881 VROMEN J MARC 01:04:51 62 126 CHALLENGE 00:06:00 9.99
449 2123 HENTIENS AURELIE 01:05:02 22 124 . 00:06:01 9.96
450 2125 HENDRICKS VIRGINIE 01:05:03 23 122 . 00:06:01 9.96
451 418 VAN LAAR CHRISTINE 01:05:06 27 120 . 00:06:01 9.95
452 1971 NICAISE ISABELLE 01:05:11 23 118 BOITHEUX 00:06:02 9.94
453 1844 CARRERAS CARNERO MIGUEL 01:05:13 155 116 . 00:06:02 9.94
454 1963 RADERMACKER M ANNE 01:05:28 28 114 . 00:06:03 9.90
455 1741 BELLEFLAMME PASCALE 01:05:28 24 112 . 00:06:03 9.90
456 1040 BRASSEUR OLIVIER 01:05:37 156 110 ZATAC 13 00:06:04 9.88
457 1788 BIET NANA 01:05:39 29 108 ZATAC 2013 00:06:04 9.87
458 1968 VANESSE PASCAL 01:05:40 119 106 . 00:06:04 9.87
459 1827 BORN FRANCOISE 01:05:42 30 104 . 00:06:05 9.86
460 2068 GREGOIRE GENEVIEVE 01:05:54 31 102 RAIL 38 00:06:06 9.83
461 419 VANHOVE MARIELLE 01:06:27 32 100 . 00:06:09 9.75
462 1946 BODSON LAURIE 01:06:44 24 98 . 00:06:10 9.71
463 36 GELARDI CALOGERO 01:06:55 25 96 . 00:06:11 9.68
464 1965 MARIQUE NICOLAS 01:07:53 157 94 . 00:06:17 9.55
465 1860 LOCIGNO PIRELLA 01:08:02 25 93 . 00:06:17 9.52
466 2108 ROQUET CHARLINE 01:08:26 25 91 . 00:06:20 9.47
467 2109 HIERNAUX MARINA 01:08:26 26 89 . 00:06:20 9.47
468 1782 VERHOEVEN HEDWIGE 01:08:36 27 87 BOITHEUX 00:06:21 9.45
469 1957 VINCENT J CLAUDE 01:09:15 26 85 . 00:06:24 9.36
470 1043 MAURI PASCALE 01:09:25 33 83 SERUNNERS 00:06:25 9.33
471 361 CALIFICE HUBERTE 01:09:28 34 81 L AVENIR 00:06:25 9.33
472 497 HOUNJE FREDDY 01:09:29 63 79 . 00:06:26 9.33
473 1048 WHEATON MATTHEN 01:10:03 15 77 . 00:06:29 9.25
474 68 VANHERCK JEAN 01:10:04 27 75 . 00:06:29 9.25
475 1778 CAUCHETEUX ISABELLE 01:10:14 28 73 . 00:06:30 9.23
476 1050 DEPOUHON CATHERINE 01:10:30 35 71 . 00:06:31 9.19
477 1842 PIERARD PASCALE 01:10:40 36 69 . 00:06:32 9.17
478 393 LEMPEREUR PATRICE 01:10:57 64 67 L AVENIR VERVIERS 00:06:34 9.13
479 1813 GILARD M FRANCE 01:11:12 29 65 . 00:06:35 9.10
480 1838 DEPOUITON VINCIANE 01:11:39 26 63 . 00:06:38 9.04
481 31 CARABIN SERGE 01:12:02 28 61 . 00:06:40 9.00
482 352 BABE MICHEL 01:12:13 120 59 . 00:06:41 8.97
483 1805 PLECKSPAEN CAROLINE 01:12:20 27 57 . 00:06:41 8.96
484 130 BERNARD ANNE CATHERINE 01:12:24 30 55 JOGIN ATTITUDE 00:06:42 8.95
485 990 GUSTIN SANDRINE 01:12:37 31 53 ZATAC 00:06:43 8.92
486 30 CARABIN STEPHANIE 01:12:57 28 51 . 00:06:45 8.88
487 1859 POTTIER FABIENNE 01:13:14 37 49 ZATAC 2013 00:06:46 8.85
488 1755 DAEL MARIE 01:13:15 38 47 SPA 00:06:46 8.85
489 1953 DEMAIN TIMOTHY 01:13:48 158 45 . 00:06:50 8.78
490 1004 GOMEZ FRANCOISE 01:13:56 29 43 . 00:06:50 8.76
491 1046 LICATA SALVATORE 01:14:15 29 41 . 00:06:52 8.73
492 1045 KNAUF PIERRE 01:14:20 30 39 . 00:06:52 8.72
493 1750 EMONTS VIVIANE 01:14:42 39 37 ZATAC 2013 00:06:55 8.67
494 1751 LEGRAND JOSEPH 01:14:42 65 35 RCA SPA 00:06:55 8.67
495 1764 MARQUET J YVES 01:14:48 121 33 ZATAC 00:06:55 8.66
496 1814 MARQUET PHILIPPE 01:14:49 122 31 . 00:06:55 8.66
497 7 JASPART GASTON 01:15:14 31 30 SERUNNER 00:06:57 8.61
498 371 DEPREITERE KOST HILDEGARD 01:16:10 40 28 . 00:07:03 8.51
499 1808 DORJO VALERIE 01:16:24 30 26 . 00:07:04 8.48
500 2137 FETTWEIS GAELLE 01:16:32 31 24 LAVENIR 00:07:05 8.47
501 1005 PHILIPKIN FRANCINE 01:16:37 41 22 . 00:07:05 8.46
502 1044 TUSSA MARIE 01:16:50 42 20 SERUNNERS 00:07:06 8.43
503 1039 MOINEAU VICTOR 01:17:36 32 18 CH LAVENIR 00:07:11 8.35
504 1029 BECCACECI PIERRE 01:18:28 123 16 SERUNNERS 00:07:15 8.26
505 2216 HENROT NATHALIE 01:20:10 43 14 . 00:07:25 8.08
506 1749 EVRARD PIERRE 01:20:10 66 12 ZATAC 2013 00:07:25 8.08
507 1800 KIRINLIC DOLORES 01:24:08 44 10 . 00:07:47 7.70
508 1837 DONNEAUX MARIE 01:24:25 32 8 ZATAC 00:07:48 7.68
509 1835 DEJALLE RENE 01:24:26 67 6 ZATAC 00:07:49 7.67
510 15 BALTUS CHRISTIANE 01:25:12 45 4 . 00:07:53 7.61
511 495 SCHIEPERS AUGUSTINE 01:28:16 46 2 . 00:08:10 7.34

Navigation

Articles de la rubrique